,,,PA_Meas_PMT16A,,PR_Meas_QMR101_102,,RH_Meas_QMH101,,SR_Meas_QMS101,,TA_Meas_QMH101,,GenWind,,GenWind,
date,time,status,PA,status,PR,status,RH,status,SR,status,TA,status,DirAvg,status,SpdAvg,
2010-05-21, 00:00:04,VALID,1000.97,VALID,0,VALID,92.1811,VALID,0,VALID,24.7746,VALID,84,VALID,0.619531,
2010-05-21, 00:01:04,VALID,1000.95,VALID,0,VALID,92.3108,VALID,0,VALID,24.7746,VALID,84,VALID,0.786719,
2010-05-21, 00:02:04,VALID,1000.94,VALID,0,VALID,92.4023,VALID,0,VALID,24.7551,VALID,75,VALID,0.811719,
2010-05-21, 00:03:04,VALID,1000.9,VALID,0,VALID,92.4939,VALID,0,VALID,24.7551,VALID,59,VALID,1.06406,
2010-05-21, 00:04:04,VALID,1000.9,VALID,0,VALID,92.4786,VALID,0,VALID,24.7142,VALID,49,VALID,0.995313,
2010-05-21, 00:05:04,VALID,1000.9,VALID,0,VALID,92.4863,VALID,0,VALID,24.7356,VALID,42,VALID,0.816406,
2010-05-21, 00:06:04,VALID,1000.83,VALID,0,VALID,92.4939,VALID,0,VALID,24.6965,VALID,39,VALID,0.935938,
2010-05-21, 00:07:04,VALID,1000.81,VALID,0,VALID,92.5397,VALID,0,VALID,24.6751,VALID,38,VALID,0.785547,
2010-05-21, 00:08:04,VALID,1000.78,VALID,0,VALID,92.6388,VALID,0,VALID,24.6751,VALID,48,VALID,1.15078,
2010-05-21, 00:09:04,VALID,1000.83,VALID,0,VALID,92.6846,VALID,0,VALID,24.6965,VALID,29,VALID,1.24609,
2010-05-21, 00:10:04,VALID,1000.79,VALID,0,VALID,92.7762,VALID,0,VALID,24.6965,VALID,35,VALID,1.46016,
2010-05-21, 00:11:04,VALID,1000.78,VALID,0,VALID,92.8143,VALID,0,VALID,24.6965,VALID,40,VALID,0.873438,
2010-05-21, 00:12:04,VALID,1000.75,VALID,0,VALID,92.9059,VALID,0,VALID,24.7374,VALID,34,VALID,1.06016,
2010-05-21, 00:13:04,VALID,1000.78,VALID,0,VALID,92.9669,VALID,0,VALID,24.716,VALID,17,VALID,1.56836,
2010-05-21, 00:14:04,VALID,1000.77,VALID,0,VALID,93.0356,VALID,0,VALID,24.7356,VALID,4,VALID,0.941797,
2010-05-21, 00:15:04,VALID,1000.7,VALID,0,VALID,93.1043,VALID,0,VALID,24.7551,VALID,23,VALID,0.645703,
2010-05-21, 00:16:04,VALID,1000.69,VALID,0,VALID,93.1348,VALID,0,VALID,24.7746,VALID,25,VALID,0.464063,
2010-05-21, 00:17:04,VALID,1000.69,VALID,0,VALID,93.1424,VALID,0,VALID,24.7941,VALID,25,VALID,0.516016,
2010-05-21, 00:18:04,VALID,1000.67,VALID,0,VALID,93.1271,VALID,0,VALID,24.7941,VALID,11,VALID,0.667578,
2010-05-21, 00:19:04,VALID,1000.66,VALID,0,VALID,93.1119,VALID,0,VALID,24.7727,VALID,11,VALID,0.0726563,
2010-05-21, 00:20:04,VALID,1000.66,VALID,0,VALID,93.1119,VALID,0,VALID,24.7941,VALID,11,VALID,0,
2010-05-21, 00:21:04,VALID,1000.64,VALID,0,VALID,93.0814,VALID,0,VALID,24.7941,VALID,11,VALID,0,
2010-05-21, 00:22:04,VALID,1000.61,VALID,0,VALID,93.0661,VALID,0,VALID,24.7941,VALID,11,VALID,0,
2010-05-21, 00:23:04,VALID,1000.62,VALID,0,VALID,93.0585,VALID,0,VALID,24.8136,VALID,11,VALID,0,
2010-05-21, 00:24:04,VALID,1000.58,VALID,0,VALID,93.0737,VALID,0,VALID,24.8332,VALID,11,VALID,0.0953125,
2010-05-21, 00:25:04,VALID,1000.63,VALID,0,VALID,93.0432,VALID,0,VALID,24.8332,VALID,11,VALID,0.221484,
2010-05-21, 00:26:04,VALID,1000.6,VALID,0,VALID,93.0432,VALID,0,VALID,24.8527,VALID,11,VALID,0.203906,
2010-05-21, 00:27:04,VALID,1000.59,VALID,0,VALID,93.0356,VALID,0,VALID,24.8527,VALID,11,VALID,0.126563,
2010-05-21, 00:28:04,VALID,1000.63,VALID,0,VALID,93.028,VALID,0,VALID,24.8722,VALID,11,VALID,0.0359375,
2010-05-21, 00:29:04,VALID,1000.66,VALID,0,VALID,93.0203,VALID,0,VALID,24.8527,VALID,11,VALID,0,
2010-05-21, 00:30:04,VALID,1000.65,VALID,0,VALID,93.028,VALID,0,VALID,24.8936,VALID,11,VALID,0,
2010-05-21, 00:31:04,VALID,1000.66,VALID,0,VALID,93.0203,VALID,0,VALID,24.8722,VALID,11,VALID,0.332812,
2010-05-21, 00:32:04,VALID,1000.66,VALID,0,VALID,92.9593,VALID,0,VALID,24.8527,VALID,117,VALID,0.719922,
2010-05-21, 00:33:04,VALID,1000.66,VALID,0,VALID,92.9364,VALID,0,VALID,24.8703,VALID,120,VALID,0.622656,
2010-05-21, 00:34:04,VALID,1000.66,VALID,0,VALID,92.7914,VALID,0,VALID,24.8508,VALID,124,VALID,0.680469,
2010-05-21, 00:35:04,VALID,1000.64,VALID,0,VALID,92.7151,VALID,0,VALID,24.8313,VALID,136,VALID,0.723828,
2010-05-21, 00:36:04,VALID,1000.64,VALID,0,VALID,92.6846,VALID,0,VALID,24.8508,VALID,147,VALID,0.935156,
2010-05-21, 00:37:04,VALID,1000.61,VALID,0,VALID,92.6617,VALID,0.112286,VALID,24.8508,VALID,153,VALID,0.889063,
2010-05-21, 00:38:04,VALID,1000.59,VALID,0,VALID,92.6312,VALID,0,VALID,24.8508,VALID,168,VALID,1.10547,
2010-05-21, 00:39:04,VALID,1000.58,VALID,0,VALID,92.5854,VALID,0,VALID,24.8703,VALID,192,VALID,1.02031,
2010-05-21, 00:40:04,VALID,1000.6,VALID,0,VALID,92.6312,VALID,0,VALID,24.9093,VALID,221,VALID,0.950781,
2010-05-21, 00:41:04,VALID,1000.56,VALID,0,VALID,92.6007,VALID,0,VALID,24.9484,VALID,219,VALID,0.839063,
2010-05-21, 00:42:04,VALID,1000.56,VALID,0,VALID,92.5091,VALID,0,VALID,24.9679,VALID,209,VALID,0.721875,
2010-05-21, 00:43:04,VALID,1000.53,VALID,0,VALID,92.41,VALID,0.112286,VALID,24.9874,VALID,201,VALID,0.573047,
2010-05-21, 00:44:04,VALID,1000.53,VALID,0,VALID,92.2497,VALID,0,VALID,25.0069,VALID,199,VALID,0.722656,
2010-05-21, 00:45:04,VALID,1000.51,VALID,0,VALID,92.0819,VALID,0,VALID,24.9874,VALID,185,VALID,0.750391,
2010-05-21, 00:46:04,VALID,1000.5,VALID,0,VALID,91.9445,VALID,0,VALID,25.0069,VALID,168,VALID,0.950391,
2010-05-21, 00:47:04,VALID,1000.49,VALID,0,VALID,91.8072,VALID,0,VALID,25.0069,VALID,165,VALID,0.928516,
2010-05-21, 00:48:04,VALID,1000.49,VALID,0,VALID,91.7233,VALID,0,VALID,25.0088,VALID,158,VALID,1.04609,
2010-05-21, 00:49:04,VALID,1000.51,VALID,0,VALID,91.586,VALID,0,VALID,25.0088,VALID,159,VALID,0.960938,
2010-05-21, 00:50:04,VALID,1000.49,VALID,0,VALID,91.5097,VALID,0,VALID,25.0303,VALID,159,VALID,0.876953,
2010-05-21, 00:51:04,VALID,1000.47,VALID,0,VALID,91.4334,VALID,0,VALID,24.9893,VALID,159,VALID,0.6625,
2010-05-21, 00:52:04,VALID,1000.48,VALID,0,VALID,91.3952,VALID,0,VALID,24.9698,VALID,159,VALID,0.621094,
2010-05-21, 00:53:04,VALID,1000.44,VALID,0,VALID,91.38,VALID,0,VALID,24.9503,VALID,156,VALID,0.626172,
2010-05-21, 00:54:04,VALID,1000.46,VALID,0,VALID,91.3571,VALID,0,VALID,24.9503,VALID,147,VALID,0.634766,
2010-05-21, 00:55:04,VALID,1000.43,VALID,0,VALID,91.3113,VALID,0,VALID,24.9112,VALID,145,VALID,0.692969,
2010-05-21, 00:56:04,VALID,1000.4,VALID,0,VALID,91.3571,VALID,0,VALID,24.8703,VALID,145,VALID,0.694141,
2010-05-21, 00:57:04,VALID,1000.37,VALID,0,VALID,91.3189,VALID,0,VALID,24.8722,VALID,145,VALID,0.707031,
2010-05-21, 00:58:04,VALID,1000.35,VALID,0,VALID,91.3723,VALID,0,VALID,24.8332,VALID,145,VALID,0.598828,
2010-05-21, 00:59:04,VALID,1000.35,VALID,0,VALID,91.4868,VALID,0,VALID,24.8136,VALID,145,VALID,0.608203,
2010-05-21, 01:00:04,VALID,1000.38,VALID,0,VALID,91.586,VALID,0,VALID,24.7746,VALID,145,VALID,0.591406,
2010-05-21, 01:01:04,VALID,1000.39,VALID,0,VALID,91.792,VALID,0,VALID,24.7746,VALID,142,VALID,0.745703,
2010-05-21, 01:02:04,VALID,1000.36,VALID,0,VALID,91.8683,VALID,0,VALID,24.7551,VALID,141,VALID,0.522266,
2010-05-21, 01:03:04,VALID,1000.38,VALID,0,VALID,91.9064,VALID,0,VALID,24.7356,VALID,141,VALID,0.360547,
2010-05-21, 01:04:04,VALID,1000.38,VALID,0,VALID,91.9827,VALID,0,VALID,24.716,VALID,141,VALID,0.266797,
2010-05-21, 01:05:04,VALID,1000.36,VALID,0,VALID,92.0209,VALID,0,VALID,24.716,VALID,141,VALID,0.2125,
2010-05-21, 01:06:04,VALID,1000.38,VALID,0,VALID,92.0971,VALID,0,VALID,24.6965,VALID,141,VALID,0.341016,
2010-05-21, 01:07:04,VALID,1000.36,VALID,0,VALID,92.1277,VALID,0,VALID,24.677,VALID,141,VALID,0.305469,
2010-05-21, 01:08:04,VALID,1000.32,VALID,0,VALID,92.2345,VALID,0,VALID,24.677,VALID,145,VALID,0.566406,
2010-05-21, 01:09:04,VALID,1000.31,VALID,0,VALID,92.2421,VALID,0,VALID,24.677,VALID,145,VALID,0.449609,
2010-05-21, 01:10:04,VALID,1000.32,VALID,0,VALID,92.1887,VALID,0,VALID,24.677,VALID,145,VALID,0.161328,
2010-05-21, 01:11:04,VALID,1000.3,VALID,0,VALID,92.1658,VALID,0,VALID,24.6361,VALID,145,VALID,0.0871094,
2010-05-21, 01:12:04,VALID,1000.28,VALID,0,VALID,92.1429,VALID,0,VALID,24.638,VALID,145,VALID,0.0855469,
2010-05-21, 01:13:04,VALID,1000.29,VALID,0,VALID,92.1734,VALID,0,VALID,24.638,VALID,145,VALID,0.0621094,
2010-05-21, 01:14:04,VALID,1000.29,VALID,0,VALID,92.1887,VALID,0,VALID,24.6184,VALID,145,VALID,0,
2010-05-21, 01:15:04,VALID,1000.32,VALID,0,VALID,92.2345,VALID,0,VALID,24.5971,VALID,145,VALID,0.222266,
2010-05-21, 01:16:04,VALID,1000.3,VALID,0,VALID,92.3566,VALID,0,VALID,24.5989,VALID,145,VALID,0.282031,
2010-05-21, 01:17:04,VALID,1000.31,VALID,0,VALID,92.4863,VALID,0,VALID,24.6184,VALID,145,VALID,0.205469,
2010-05-21, 01:18:04,VALID,1000.33,VALID,0,VALID,92.5702,VALID,0,VALID,24.6184,VALID,145,VALID,0.184375,
2010-05-21, 01:19:04,VALID,1000.31,VALID,0,VALID,92.6236,VALID,0,VALID,24.6184,VALID,145,VALID,0.240234,
2010-05-21, 01:20:04,VALID,1000.3,VALID,0,VALID,92.6465,VALID,0,VALID,24.638,VALID,145,VALID,0.0410156,
2010-05-21, 01:21:04,VALID,1000.29,VALID,0,VALID,92.6694,VALID,0,VALID,24.638,VALID,145,VALID,0,
2010-05-21, 01:22:04,VALID,1000.23,VALID,0,VALID,92.6312,VALID,0,VALID,24.6184,VALID,145,VALID,0,
2010-05-21, 01:23:04,VALID,1000.18,VALID,0,VALID,92.6846,VALID,0,VALID,24.638,VALID,144,VALID,0.227344,
2010-05-21, 01:24:04,VALID,1000.18,VALID,0,VALID,92.6923,VALID,0,VALID,24.5971,VALID,111,VALID,0.53125,
2010-05-21, 01:25:04,VALID,1000.16,VALID,0,VALID,92.4939,VALID,0,VALID,24.5775,VALID,43,VALID,0.741797,
2010-05-21, 01:26:04,VALID,1000.15,VALID,0,VALID,92.471,VALID,0,VALID,24.5385,VALID,32,VALID,0.802344,
2010-05-21, 01:27:04,VALID,1000.13,VALID,0,VALID,92.2879,VALID,0,VALID,24.5013,VALID,24,VALID,0.789453,
2010-05-21, 01:28:04,VALID,1000.12,VALID,0,VALID,92.1429,VALID,0,VALID,24.4019,VALID,24,VALID,0.5125,
2010-05-21, 01:29:04,VALID,1000.12,VALID,0,VALID,92.1963,VALID,0,VALID,24.3842,VALID,24,VALID,0.575781,
2010-05-21, 01:30:04,VALID,1000.1,VALID,0,VALID,92.3642,VALID,0,VALID,24.3452,VALID,24,VALID,0.505469,
2010-05-21, 01:31:04,VALID,1000.09,VALID,0,VALID,92.5931,VALID,0,VALID,24.3452,VALID,349,VALID,0.421094,
2010-05-21, 01:32:04,VALID,1000.09,VALID,0,VALID,92.7228,VALID,0,VALID,24.3647,VALID,348,VALID,0.549219,
2010-05-21, 01:33:04,VALID,1000.09,VALID,0,VALID,92.7533,VALID,0,VALID,24.3452,VALID,348,VALID,0.276953,
2010-05-21, 01:34:04,VALID,1000.09,VALID,0,VALID,92.7609,VALID,0,VALID,24.2848,VALID,349,VALID,0.321484,
2010-05-21, 01:35:04,VALID,1000.09,VALID,0,VALID,92.7838,VALID,0,VALID,24.2671,VALID,349,VALID,0.313281,
2010-05-21, 01:36:04,VALID,1000.08,VALID,0,VALID,92.8143,VALID,0,VALID,24.2458,VALID,349,VALID,0.522266,
2010-05-21, 01:37:04,VALID,1000.08,VALID,0,VALID,92.9135,VALID,0,VALID,24.2458,VALID,349,VALID,0.572266,
2010-05-21, 01:38:04,VALID,1000.11,VALID,0,VALID,93.028,VALID,0,VALID,24.2866,VALID,349,VALID,0.605859,
2010-05-21, 01:39:04,VALID,1000.08,VALID,0,VALID,93.0814,VALID,0,VALID,24.3062,VALID,349,VALID,0.731641,
2010-05-21, 01:40:04,VALID,1000.1,VALID,0,VALID,93.1195,VALID,0,VALID,24.2653,VALID,349,VALID,0.601563,
2010-05-21, 01:41:04,VALID,1000.06,VALID,0,VALID,93.1424,VALID,0,VALID,24.3062,VALID,350,VALID,0.620313,
2010-05-21, 01:42:04,VALID,1000.07,VALID,0,VALID,93.1653,VALID,0,VALID,24.2866,VALID,6,VALID,0.510156,
2010-05-21, 01:43:04,VALID,1000.09,VALID,0,VALID,93.1805,VALID,0,VALID,24.2866,VALID,6,VALID,0.423828,
2010-05-21, 01:44:04,VALID,1000.05,VALID,0,VALID,93.15,VALID,0,VALID,24.2671,VALID,6,VALID,0.511719,
2010-05-21, 01:45:04,VALID,1000.07,VALID,0,VALID,93.1653,VALID,0,VALID,24.2671,VALID,6,VALID,0.556641,
2010-05-21, 01:46:04,VALID,1000.05,VALID,0,VALID,93.1958,VALID,0,VALID,24.2476,VALID,6,VALID,0.489844,
2010-05-21, 01:47:04,VALID,1000.06,VALID,0,VALID,93.1882,VALID,0,VALID,24.2263,VALID,6,VALID,0.447656,
2010-05-21, 01:48:04,VALID,1000.05,VALID,0,VALID,93.1882,VALID,0,VALID,24.2067,VALID,6,VALID,0.410547,
2010-05-21, 01:49:04,VALID,1000.06,VALID,0,VALID,93.2187,VALID,0,VALID,24.2281,VALID,6,VALID,0.283203,
2010-05-21, 01:50:04,VALID,1000.04,VALID,0,VALID,93.2645,VALID,0,VALID,24.2476,VALID,6,VALID,0.192969,
2010-05-21, 01:51:04,VALID,1000.02,VALID,0,VALID,93.2874,VALID,0,VALID,24.2476,VALID,6,VALID,0.1125,
2010-05-21, 01:52:04,VALID,1000.08,VALID,0,VALID,93.3026,VALID,0,VALID,24.2281,VALID,6,VALID,0,
2010-05-21, 01:53:04,VALID,1000.05,VALID,0,VALID,93.3179,VALID,0,VALID,24.2067,VALID,6,VALID,0,
2010-05-21, 01:54:04,VALID,1000.05,VALID,0,VALID,93.3789,VALID,0,VALID,24.2281,VALID,6,VALID,0.107422,
2010-05-21, 01:55:04,VALID,1000.07,VALID,0,VALID,93.4018,VALID,0,VALID,24.2476,VALID,6,VALID,0.0539063,
2010-05-21, 01:56:04,VALID,1000.1,VALID,0,VALID,93.4171,VALID,0,VALID,24.2458,VALID,6,VALID,0.212891,
2010-05-21, 01:57:04,VALID,1000.11,VALID,0,VALID,93.4323,VALID,0,VALID,24.2671,VALID,6,VALID,0.294922,
2010-05-21, 01:58:04,VALID,1000.11,VALID,0,VALID,93.4552,VALID,0,VALID,24.2671,VALID,6,VALID,0.421875,
2010-05-21, 01:59:04,VALID,1000.09,VALID,0,VALID,93.4705,VALID,0,VALID,24.2866,VALID,6,VALID,0.425781,
2010-05-21, 02:00:04,VALID,1000.12,VALID,0,VALID,93.501,VALID,0,VALID,24.2866,VALID,6,VALID,0.440625,
2010-05-21, 02:01:04,VALID,1000.1,VALID,0,VALID,93.4857,VALID,0,VALID,24.2866,VALID,6,VALID,0.440234,
2010-05-21, 02:02:04,VALID,1000.11,VALID,0,VALID,93.4628,VALID,0,VALID,24.2671,VALID,6,VALID,0.394531,
2010-05-21, 02:03:04,VALID,1000.12,VALID,0,VALID,93.4934,VALID,0,VALID,24.2476,VALID,6,VALID,0.327734,
2010-05-21, 02:04:04,VALID,1000.13,VALID,0,VALID,93.4628,VALID,0,VALID,24.2067,VALID,6,VALID,0.0957031,
2010-05-21, 02:05:04,VALID,1000.14,VALID,0,VALID,93.4094,VALID,0,VALID,24.1872,VALID,6,VALID,0.139844,
2010-05-21, 02:06:04,VALID,1000.15,VALID,0,VALID,93.44,VALID,0,VALID,24.1891,VALID,6,VALID,0,
2010-05-21, 02:07:04,VALID,1000.15,VALID,0,VALID,93.4247,VALID,0,VALID,24.1696,VALID,6,VALID,0.0015625,
2010-05-21, 02:08:04,VALID,1000.15,VALID,0,VALID,93.4323,VALID,0,VALID,24.1482,VALID,6,VALID,0,
2010-05-21, 02:09:04,VALID,1000.12,VALID,0,VALID,93.44,VALID,0,VALID,24.1696,VALID,6,VALID,0,
2010-05-21, 02:10:04,VALID,1000.1,VALID,0,VALID,93.4628,VALID,0,VALID,24.1677,VALID,6,VALID,0,
2010-05-21, 02:11:04,VALID,1000.09,VALID,0,VALID,93.4552,VALID,0,VALID,24.1891,VALID,6,VALID,0.0617188,
2010-05-21, 02:12:04,VALID,1000.1,VALID,0,VALID,93.4934,VALID,0,VALID,24.2086,VALID,6,VALID,0.320313,
2010-05-21, 02:13:04,VALID,1000.09,VALID,0,VALID,93.5239,VALID,0,VALID,24.2476,VALID,6,VALID,0,
2010-05-21, 02:14:04,VALID,1000.07,VALID,0,VALID,93.4857,VALID,0,VALID,24.2281,VALID,6,VALID,0,
2010-05-21, 02:15:04,VALID,1000.06,VALID,0,VALID,93.4857,VALID,0,VALID,24.2281,VALID,6,VALID,0,
2010-05-21, 02:16:04,VALID,1000.04,VALID,0,VALID,93.4705,VALID,0,VALID,24.2086,VALID,6,VALID,0,
2010-05-21, 02:17:04,VALID,1000.05,VALID,0,VALID,93.5086,VALID,0,VALID,24.2281,VALID,6,VALID,0,
2010-05-21, 02:18:04,VALID,1000.05,VALID,0,VALID,93.4857,VALID,0,VALID,24.2281,VALID,6,VALID,0,
2010-05-21, 02:19:04,VALID,1000.04,VALID,0,VALID,93.4857,VALID,0,VALID,24.2086,VALID,6,VALID,0,
2010-05-21, 02:20:04,VALID,1000.02,VALID,0,VALID,93.4934,VALID,0,VALID,24.2086,VALID,6,VALID,0,
2010-05-21, 02:21:04,VALID,1000.02,VALID,0,VALID,93.5239,VALID,0,VALID,24.2281,VALID,6,VALID,0,
2010-05-21, 02:22:04,VALID,1000.02,VALID,0,VALID,93.5239,VALID,0,VALID,24.2476,VALID,6,VALID,0,
2010-05-21, 02:23:04,VALID,1000.01,VALID,0,VALID,93.5391,VALID,0,VALID,24.2866,VALID,6,VALID,0,
2010-05-21, 02:24:04,VALID,999.99,VALID,0,VALID,93.5315,VALID,0,VALID,24.2866,VALID,6,VALID,0,
2010-05-21, 02:25:04,VALID,999.961,VALID,0,VALID,93.5163,VALID,0,VALID,24.3062,VALID,6,VALID,0,
2010-05-21, 02:26:04,VALID,999.951,VALID,0,VALID,93.5391,VALID,0,VALID,24.3257,VALID,6,VALID,0,
2010-05-21, 02:27:04,VALID,999.954,VALID,0,VALID,93.5086,VALID,0,VALID,24.3257,VALID,6,VALID,0,
2010-05-21, 02:28:04,VALID,999.924,VALID,0,VALID,93.4705,VALID,0,VALID,24.2866,VALID,6,VALID,0,
2010-05-21, 02:29:04,VALID,999.892,VALID,0,VALID,93.4323,VALID,0,VALID,24.2476,VALID,6,VALID,0,
2010-05-21, 02:30:04,VALID,999.906,VALID,0,VALID,93.356,VALID,0,VALID,24.2086,VALID,6,VALID,0.417578,
2010-05-21, 02:31:04,VALID,999.928,VALID,0,VALID,93.2874,VALID,0,VALID,24.1696,VALID,6,VALID,0.415625,
2010-05-21, 02:32:04,VALID,999.951,VALID,0,VALID,93.2492,VALID,0,VALID,24.1305,VALID,6,VALID,0.373047,
2010-05-21, 02:33:04,VALID,999.959,VALID,0,VALID,93.234,VALID,0,VALID,24.111,VALID,6,VALID,0.400781,
2010-05-21, 02:34:04,VALID,999.994,VALID,0,VALID,93.2034,VALID,0,VALID,24.0915,VALID,6,VALID,0.466406,
2010-05-21, 02:35:04,VALID,999.975,VALID,0,VALID,93.3103,VALID,0,VALID,24.072,VALID,52,VALID,0.465625,
2010-05-21, 02:36:04,VALID,1000.02,VALID,0,VALID,93.3789,VALID,0,VALID,24.0915,VALID,52,VALID,0.350781,
2010-05-21, 02:37:04,VALID,999.993,VALID,0,VALID,93.4476,VALID,0,VALID,24.111,VALID,52,VALID,0.419141,
2010-05-21, 02:38:04,VALID,1000.01,VALID,0,VALID,93.4628,VALID,0,VALID,24.1305,VALID,52,VALID,0.477344,
2010-05-21, 02:39:04,VALID,1000.01,VALID,0,VALID,93.4934,VALID,0,VALID,24.1696,VALID,52,VALID,0.457031,
2010-05-21, 02:40:04,VALID,1000.02,VALID,0,VALID,93.5239,VALID,0,VALID,24.1696,VALID,52,VALID,0.464844,
2010-05-21, 02:41:04,VALID,1000.03,VALID,0,VALID,93.5315,VALID,0,VALID,24.1696,VALID,52,VALID,0.496484,
2010-05-21, 02:42:04,VALID,1000.02,VALID,0,VALID,93.5239,VALID,0,VALID,24.1677,VALID,52,VALID,0.637109,
2010-05-21, 02:43:04,VALID,1000.05,VALID,0,VALID,93.501,VALID,0,VALID,24.1696,VALID,52,VALID,0.871875,
2010-05-21, 02:44:04,VALID,1000.06,VALID,0,VALID,93.4552,VALID,0,VALID,24.1305,VALID,35,VALID,0.90625,
2010-05-21, 02:45:04,VALID,1000.08,VALID,0,VALID,93.4171,VALID,0,VALID,24.111,VALID,35,VALID,1.15703,
2010-05-21, 02:46:04,VALID,1000.07,VALID,0,VALID,93.3713,VALID,0,VALID,24.072,VALID,35,VALID,1.00391,
2010-05-21, 02:47:04,VALID,1000.07,VALID,0,VALID,93.3637,VALID,0,VALID,24.0525,VALID,35,VALID,0.927734,
2010-05-21, 02:48:04,VALID,1000.03,VALID,0,VALID,93.3637,VALID,0,VALID,24.0329,VALID,35,VALID,0.807422,
2010-05-21, 02:49:04,VALID,1000.02,VALID,0,VALID,93.3408,VALID,0,VALID,24.0134,VALID,35,VALID,0.698047,
2010-05-21, 02:50:04,VALID,1000.03,VALID,0,VALID,93.3255,VALID,0,VALID,23.9939,VALID,35,VALID,0.574609,
2010-05-21, 02:51:04,VALID,1000.01,VALID,0,VALID,93.3408,VALID,0,VALID,23.9744,VALID,35,VALID,0.653125,
2010-05-21, 02:52:04,VALID,999.985,VALID,0,VALID,93.3103,VALID,0,VALID,23.9744,VALID,35,VALID,0.738672,
2010-05-21, 02:53:04,VALID,999.972,VALID,0,VALID,93.3179,VALID,0,VALID,23.9549,VALID,34,VALID,0.795703,
2010-05-21, 02:54:04,VALID,1000.01,VALID,0,VALID,93.3484,VALID,0,VALID,23.9549,VALID,34,VALID,0.787891,
2010-05-21, 02:55:04,VALID,1000.01,VALID,0,VALID,93.3866,VALID,0,VALID,23.9549,VALID,34,VALID,0.824219,
2010-05-21, 02:56:04,VALID,1000.05,VALID,0,VALID,93.4247,VALID,0,VALID,23.9744,VALID,35,VALID,0.990625,
2010-05-21, 02:57:04,VALID,1000.02,VALID,0,VALID,93.5086,VALID,0,VALID,23.9939,VALID,41,VALID,0.983203,
2010-05-21, 02:58:04,VALID,1000.05,VALID,0,VALID,93.4934,VALID,0,VALID,24.0134,VALID,44,VALID,0.835938,
2010-05-21, 02:59:04,VALID,1000.03,VALID,0,VALID,93.5239,VALID,0,VALID,24.0134,VALID,52,VALID,0.689453,
2010-05-21, 03:00:04,VALID,1000.06,VALID,0,VALID,93.5239,VALID,0,VALID,24.0134,VALID,55,VALID,0.535937,
2010-05-21, 03:01:04,VALID,1000.1,VALID,0,VALID,93.4934,VALID,0,VALID,24.0134,VALID,58,VALID,0.477734,
2010-05-21, 03:02:04,VALID,1000.12,VALID,0,VALID,93.4705,VALID,0,VALID,23.9939,VALID,58,VALID,0.400781,
2010-05-21, 03:03:04,VALID,1000.16,VALID,0,VALID,93.4857,VALID,0,VALID,23.9921,VALID,58,VALID,0.393359,
2010-05-21, 03:04:04,VALID,1000.19,VALID,0,VALID,93.4857,VALID,0,VALID,23.9726,VALID,58,VALID,0.311328,
2010-05-21, 03:05:04,VALID,1000.23,VALID,0,VALID,93.4781,VALID,0,VALID,23.9726,VALID,58,VALID,0.282031,
2010-05-21, 03:06:04,VALID,1000.26,VALID,0,VALID,93.4476,VALID,0,VALID,23.9744,VALID,58,VALID,0.300391,
2010-05-21, 03:07:04,VALID,1000.26,VALID,0,VALID,93.44,VALID,0,VALID,23.9549,VALID,58,VALID,0.416797,
2010-05-21, 03:08:04,VALID,1000.28,VALID,0,VALID,93.4323,VALID,0,VALID,23.9336,VALID,58,VALID,0.492969,
2010-05-21, 03:09:04,VALID,1000.29,VALID,0,VALID,93.3866,VALID,0,VALID,23.914,VALID,48,VALID,0.667188,
2010-05-21, 03:10:04,VALID,1000.28,VALID,0,VALID,93.3637,VALID,0,VALID,23.8945,VALID,47,VALID,0.667969,
2010-05-21, 03:11:04,VALID,1000.29,VALID,0,VALID,93.356,VALID,0,VALID,23.8555,VALID,39,VALID,0.799219,
2010-05-21, 03:12:04,VALID,1000.27,VALID,0,VALID,93.3484,VALID,0,VALID,23.8573,VALID,37,VALID,0.715234,
2010-05-21, 03:13:04,VALID,1000.29,VALID,0,VALID,93.4247,VALID,0,VALID,23.8768,VALID,37,VALID,0.527344,
2010-05-21, 03:14:04,VALID,1000.25,VALID,0,VALID,93.4781,VALID,0,VALID,23.9159,VALID,37,VALID,0.477734,
2010-05-21, 03:15:04,VALID,1000.24,VALID,0,VALID,93.5544,VALID,0,VALID,23.9531,VALID,37,VALID,0.434375,
2010-05-21, 03:16:04,VALID,1000.21,VALID,0,VALID,93.5468,VALID,0,VALID,23.9726,VALID,37,VALID,0.207422,
2010-05-21, 03:17:04,VALID,1000.23,VALID,0,VALID,93.5468,VALID,0,VALID,23.9726,VALID,37,VALID,0.152344,
2010-05-21, 03:18:04,VALID,1000.21,VALID,0,VALID,93.5544,VALID,0,VALID,23.9726,VALID,37,VALID,0,
2010-05-21, 03:19:04,VALID,1000.2,VALID,0,VALID,93.5468,VALID,0,VALID,23.9531,VALID,37,VALID,0.155078,
2010-05-21, 03:20:04,VALID,1000.18,VALID,0,VALID,93.5468,VALID,0,VALID,23.9726,VALID,47,VALID,0.355078,
2010-05-21, 03:21:04,VALID,1000.2,VALID,0,VALID,93.5849,VALID,0,VALID,23.9921,VALID,47,VALID,0.308594,
2010-05-21, 03:22:04,VALID,1000.17,VALID,0,VALID,93.5697,VALID,0,VALID,24.0116,VALID,47,VALID,0.355078,
2010-05-21, 03:23:04,VALID,1000.18,VALID,0,VALID,93.5926,VALID,0,VALID,24.0311,VALID,47,VALID,0.183203,
2010-05-21, 03:24:04,VALID,1000.15,VALID,0,VALID,93.5697,VALID,0,VALID,24.0311,VALID,47,VALID,0,
2010-05-21, 03:25:04,VALID,1000.09,VALID,0,VALID,93.5773,VALID,0,VALID,24.072,VALID,47,VALID,0,
2010-05-21, 03:26:04,VALID,1000.06,VALID,0,VALID,93.5773,VALID,0,VALID,24.0701,VALID,47,VALID,0,
2010-05-21, 03:27:04,VALID,1000.06,VALID,0,VALID,93.5468,VALID,0,VALID,24.0701,VALID,47,VALID,0,
2010-05-21, 03:28:04,VALID,1000.03,VALID,0,VALID,93.562,VALID,0,VALID,24.0915,VALID,47,VALID,0,
2010-05-21, 03:29:04,VALID,1000.06,VALID,0,VALID,93.5697,VALID,0,VALID,24.1092,VALID,47,VALID,0,
2010-05-21, 03:30:04,VALID,1000.07,VALID,0,VALID,93.5315,VALID,0,VALID,24.111,VALID,47,VALID,0,
2010-05-21, 03:31:04,VALID,1000.07,VALID,0,VALID,93.5239,VALID,0,VALID,24.072,VALID,47,VALID,0,
2010-05-21, 03:32:04,VALID,1000.1,VALID,0,VALID,93.501,VALID,0,VALID,24.072,VALID,47,VALID,0,
2010-05-21, 03:33:04,VALID,1000.11,VALID,0,VALID,93.4628,VALID,0,VALID,24.0311,VALID,47,VALID,0,
2010-05-21, 03:34:04,VALID,1000.15,VALID,0,VALID,93.3713,VALID,0,VALID,23.9726,VALID,47,VALID,0.261719,
2010-05-21, 03:35:04,VALID,1000.13,VALID,0,VALID,93.3789,VALID,0,VALID,23.9336,VALID,47,VALID,0.233984,
2010-05-21, 03:36:04,VALID,1000.13,VALID,0,VALID,93.4094,VALID,0,VALID,23.9531,VALID,47,VALID,0.327734,
2010-05-21, 03:37:04,VALID,1000.1,VALID,0,VALID,93.4628,VALID,0,VALID,23.9744,VALID,47,VALID,0.345703,
2010-05-21, 03:38:04,VALID,1000.1,VALID,0,VALID,93.4323,VALID,0,VALID,23.9549,VALID,47,VALID,0.280859,
2010-05-21, 03:39:04,VALID,1000.14,VALID,0,VALID,93.4628,VALID,0,VALID,23.9531,VALID,47,VALID,0.105469,
2010-05-21, 03:40:04,VALID,1000.11,VALID,0,VALID,93.5239,VALID,0,VALID,24.0134,VALID,47,VALID,0,
2010-05-21, 03:41:04,VALID,1000.13,VALID,0,VALID,93.5086,VALID,0,VALID,23.9726,VALID,47,VALID,0,
2010-05-21, 03:42:04,VALID,1000.15,VALID,0,VALID,93.5163,VALID,0,VALID,23.9726,VALID,47,VALID,0,
2010-05-21, 03:43:04,VALID,1000.17,VALID,0,VALID,93.5315,VALID,0,VALID,23.9921,VALID,47,VALID,0,
2010-05-21, 03:44:04,VALID,1000.17,VALID,0,VALID,93.5468,VALID,0,VALID,23.9921,VALID,47,VALID,0,
2010-05-21, 03:45:04,VALID,1000.19,VALID,0,VALID,93.5697,VALID,0,VALID,24.0329,VALID,47,VALID,0,
2010-05-21, 03:46:04,VALID,1000.23,VALID,0,VALID,93.5849,VALID,0,VALID,24.0329,VALID,47,VALID,0,
2010-05-21, 03:47:04,VALID,1000.27,VALID,0,VALID,93.5773,VALID,0,VALID,24.0525,VALID,47,VALID,0,
2010-05-21, 03:48:04,VALID,1000.32,VALID,0,VALID,93.6154,VALID,0,VALID,24.0506,VALID,47,VALID,0,
2010-05-21, 03:49:04,VALID,1000.33,VALID,0,VALID,93.6231,VALID,0,VALID,24.0525,VALID,47,VALID,0,